Regional Weather Roundup
Issued by NWS New Orleans/Baton Rouge, LA

Home | Current Version | Previous Version | Text Only | Print | Product List | Glossary Off
Versions: 1 2 3 4 5 6 7 8 9 10 11 12 13 14 15 16 17 18 19 20 21 22 23 24 25 26 27 28 29 30 31 32 33 34 35 36 37 38 39 40 41 42 43 44 45 46 47 48 49 50

476
ASUS44 KLIX 211910
RWRLIX
NEW ORLEANS REGIONAL WEATHER ROUNDUP
NATIONAL WEATHER SERVICE NEW ORLEANS LA
200 PM CDT THU AUG 21 2014

NOTE: "FAIR" INDICATES FEW OR NO CLOUDS BELOW 12,000 FEET WITH NO
      SIGNIFICANT WEATHER AND/OR OBSTRUCTIONS TO VISIBILITY.
      SKY/WX - SKY CONDITION AND SIGNIFICANT WEATHER.
      TMP - AIR TEMPERATURE.     DP    - DEWPOINT TEMPERATURE.
      RH  - RELATIVE HUMIDITY.   PRES  - PRESSURE.
      HI  - HEAT INDEX.          WCI   - WIND CHILL INDEX.

*  THESE STATIONS ARE NOT NWS OR FAA STATIONS AND ARE NOT UNDER
   NWS QUALITY CONTROL.

LAZ038-040-048-061>063-065>067-069-212000-
SOUTHEAST LOUISIANA

CITY           SKY/WX    TMP DP  RH WIND       PRES   REMARKS
N.O. AUDUBON     N/A     99  74  45 MISG        N/A  HX 110
N.O. INTL ARPT PTSUNNY   90  76  63 NE7       30.10F HX 101
N.O. LAKEFRONT MOSUNNY   88  77  69 NE7       30.12F HX 100
N.O. DOWNTOWN*   N/A     91  73  55 E7        30.11F HX 100
SLIDELL        MOSUNNY   93  69  45 CALM      30.10F HX  98
BATON ROUGE    PTSUNNY   93  73  52 N3        30.10S HX 102
BOOTHVILLE     PTSUNNY   86  77  74 SE10      30.13F HX  97
BELLE CHASSE   PTSUNNY   93  72  50 SE6       30.10F HX 101
BOGALUSA*        N/A     94  69  44 CALM      30.12F HX  99
GALLIANO*      NOT AVBL
NEW ROADS*     MOCLDY    85  76  74 E8        30.10S HX  95
GONZALES*        N/A     90  77  65 CALM      30.10S HX 102
HAMMOND*       MOSUNNY   95  68  41 SE5       30.12F HX  99
HOUMA*         SHOWER    90  73  58 S9        30.11F HX  98
PORT FOURCHON* PTCLDY    90  75  62 SE9       30.13F HX 100

$$

MSZ070-080>082-212000-
SOUTHERN MISSISSIPPI

CITY           SKY/WX    TMP DP  RH WIND       PRES   REMARKS
MCCOMB         PTSUNNY   91  71  51 SE7       30.12F HX  97
GULFPORT       PTSUNNY   93  73  52 S9        30.11F HX 102
BILOXI         MOSUNNY   91  75  58 S9        30.12F HX 102
PASCAGOULA     MOSUNNY   93  75  55 SW6       30.11F HX 104
STENNIS ARPT*  PTSUNNY  N/A N/A N/A CALM      30.12F

$$

COASTAL OBSERVATIONS
LAKE AND NEARSHORE STATIONS

STATION/POSITION TIME  TEMP    WIND        PRES    WAVE
                       AIR SEA DIR/SP/G            HT/PER
                 (UTC) (F)     (DEG/KT/KT) (MB)    (FT/S)
PASCAGOULA       1900   89     220/  9/ 11 1019.6
WAVELAND YACHT   1900   87     160/  8/ 11 1019.3
GRAND ISLE       1900   88 89  140/  5/  8 1020.7
SOUTHWEST PASS   1900   91 89  200/  2/  3 1020.4
NEW CANAL        1900   87 85   50/  7/  8 1020.0
SHELL BEACH      1900   86 83   90/ 13/ 14 1019.6

OFFSHORE STATIONS

STATION/POSITION TIME  TEMP    WIND        PRES    WAVE
                       AIR SEA DIR/SP/G            HT/PER
                 (UTC) (F)     (DEG/KT/KT) (MB)    (FT/S)
64 S DAUPHIN ISL 1850   86 91   10/  2/  4 1020.7

$$




USA.gov is the U.S. government's official web portal to all federal, state and local government web resources and services.